Weather Roundup
Issued by NWS

Home | Current Version | Previous Version | Text Only | Print | Product List | Glossary On
Versions: 1 2 3 4 5 6 7 8 9 10 11 12 13 14 15 16 17 18 19 20 21 22 23 24 25 26 27 28 29 30 31 32 33 34 35 36 37 38 39 40 41 42 43 44 45 46 47 48 49 50
000
NZUS93 KARX 252159
HRRWXR

CURRENT HOURLY OBSERVATIONS ACROSS
MUCH OF THE UPPER MISSISSIPPI VALLEY
NATIONAL WEATHER SERVICE LA CROSSE WI
500 PM CDT SAT APR 25 2015


...SOUTHEAST MINNESOTA...


CITY           SKY/WX    TMP DP  RH WIND       PRES   REMARKS
ROCHESTER      PTSUNNY   54  38  54 NE16      29.84R
ROCHESTER/MAYO CLOUDY    53  36  52 NE10G18   29.84S
WINONA         PTSUNNY   57  30  35 E6        29.83S
AUSTIN         CLOUDY    52  39  62 E15       29.83R
ALBERT LEA     CLOUDY    52  39  62 E15       29.82R
DODGE CENTER   CLOUDY    54  39  58 E13       29.84R
PRESTON        CLOUDY    51  35  53 E12G17    29.84R
OWATONNA       PTSUNNY   55  37  50 E14       29.84R
FARIBAULT      CLOUDY    55  37  50 E9        29.84S
$$

...ELSEWHERE IN MINNESOTA...


CITY           SKY/WX    TMP DP  RH WIND       PRES   REMARKS
MINNEAPOLIS    MOSUNNY   61  25  25 E14G20    29.84S
INTNL FALLS    SUNNY     55  24  30 SE7       29.95F
DULUTH         MOSUNNY   47  15  27 E15       29.97R
RED WING       MOSUNNY   61  19  20 E12G18    29.83S
REDWOOD FALLS  MOSUNNY   58  39  49 E13       29.83S
MANKATO        CLOUDY    55  37  50 E12       29.85R
WORTHINGTON    CLOUDY    55  39  54 E17       29.81S
FAIRMONT       CLOUDY    54  36  50 NE17G23   29.83R
$$

...SOUTHWEST WISCONSIN...


CITY           SKY/WX    TMP DP  RH WIND       PRES   REMARKS
LA CROSSE      PTSUNNY   60  29  30 NE9       29.81F
PRAIRIE DU CHI CLOUDY    52  35  51 NE8G20    29.80R
BOSCOBEL       CLOUDY    54  32  43 NE10G22   29.82R
LONE ROCK      NOT AVBL
PLATTEVILLE    CLOUDY    50  38  62 NE17G24   29.78R
FORT MC COY    PTSUNNY   57  16  20 E13G20    29.83S
VIROQUA        CLOUDY    52  30  42 E13       29.81S
WIS DELLS      CLOUDY    52  22  31 E10G18    29.82S
$$

...ELSEWHERE IN WISCONSIN...


CITY           SKY/WX    TMP DP  RH WIND       PRES   REMARKS
MILWAUKEE      CLOUDY    40  30  67 N16G24    29.83S WCI  31
MADISON        CLOUDY    49  32  52 NE20      29.81S
GREEN BAY      PTSUNNY   48  23  37 NE16      29.90R
EAU CLAIRE     SUNNY     60  19  20 NE10G20   29.84S
BLACK RVR FLS  FAIR      59  15  18 E15G21    29.83R
MEDFORD        SUNNY     57  21  24 NE15G21   29.84S
WAUSAU         CLOUDY    57  16  20 E8G17     29.84R
WIS RAPIDS     MOSUNNY   55  15  20 E10       29.86S
MARSHFIELD     MOSUNNY   58  18  21 E13G21    29.84S
RICE LAKE      PTSUNNY   62  22  21 NE13G20   29.86S
$$

...NORTHEAST IOWA...


CITY           SKY/WX    TMP DP  RH WIND       PRES   REMARKS
DECORAH        CLOUDY    52  37  58 E15G22    29.80R
MASON CITY     CLOUDY    52  40  63 E18       29.82R
CHARLES CITY   CLOUDY    52  39  62 E13G22    29.81R
OELWEIN        CLOUDY    50  39  66 E15G22    29.79R
$$

...ELSEWHERE IN IOWA...


CITY           SKY/WX    TMP DP  RH WIND       PRES   REMARKS
DES MOINES     CLOUDY    52  45  77 NE15G23   29.73R
IOWA CITY      CLOUDY    51  42  71 NE15G23   29.75R
FORT DODGE     CLOUDY    54  39  58 E21       29.80R
$$

...NORTHERN ILLINOIS...


CITY           SKY/WX    TMP DP  RH WIND       PRES   REMARKS
CHICAGO-OHARE  CLOUDY    46  40  79 NE15      29.75R
CHICAGO-MIDWAY CLOUDY    48  39  71 E21       29.75R
MOLINE         CLOUDY    49  42  77 E16       29.73R
ROCKFORD       CLOUDY    48  38  68 NE17G25   29.79R
PEORIA         CLOUDY    49  43  80 NE16      29.67R
$$

NOTE: "FAIR" INDICATES FEW OR NO CLOUDS BELOW 12,000 FEET WITH NO
SIGNIFICANT WEATHER AND/OR OBSTRUCTIONS TO VISIBILITY. WIND
SPEEDS ARE IN MILES-PER-HOUR.



USA.gov is the U.S. government's official web portal to all federal, state and local government web resources and services.